Location: Hamilton
(43.2500°N, 79.8330°W)
Time: 17:03:18
(UTC-04:00)

Amateur Radio Satellites - All Passes

Search period start: 23 August 2016 16:33
Search period end: 24 August 2016 16:33
Location: Hamilton, 43.2500°N, 79.8330°W

Satellite Date Start Highest point End Downlink Frequencies (MHz)
Time Altitude Azimuth
SWISSCUBE 23 Aug 16:34:17 16:38:41 38° 291° (WNW) 16:43:04 437.505
KKS-1 23 Aug 16:40:29 16:44:21 28° 96° (E) 16:48:10 437.445
BEESAT 23 Aug 16:52:14 16:56:19 29° 293° (WNW) 17:00:23 436.000
HORYU 2 23 Aug 17:01:41 17:05:56 44° 71° (ENE) 17:10:11 437.375
AO-85 23 Aug 17:01:58 17:05:18 23° 248° (WSW) 17:08:27 145.980
BRITE-PL 23 Aug 17:04:49 17:08:13 20° 62° (ENE) 17:11:49 437.365/2234.400
GOMX 1 23 Aug 17:08:11 17:09:20 11° 55° (NE) 17:10:31 467.674
AO-7 23 Aug 17:09:21 17:16:56 38° 262° (W) 17:24:35 29.400- 29.500
NOAA 15 23 Aug 17:10:28 17:13:47 17° 59° (ENE) 17:17:06 137.62
O/OREOS (USA 219) 23 Aug 17:15:54 17:18:19 14° 310° (NW) 17:20:46 437.305
CUBESAT XI-V 23 Aug 17:19:25 17:21:28 13° 89° (E) 17:23:30 437.345
STARS 23 Aug 17:29:22 17:33:37 45° 99° (E) 17:37:48 437.465
ITUPSAT 1 23 Aug 17:38:09 17:40:06 12° 301° (WNW) 17:42:02 437.325
DOVE 4 23 Aug 17:39:41 17:40:15 10° 56° (NE) 17:40:48 437.250
ISS 23 Aug 17:40:35 17:43:47 52° 217° (SW) 17:46:56 145.825
Cosmos 2491 23 Aug 17:42:39 17:47:48 17° 76° (ENE) 17:52:58 435.465 / 435.565
MOZHAYETS 4 23 Aug 17:47:46 17:52:08 45° 289° (WNW) 17:56:28
YUBILEINY 23 Aug 17:58:27 18:06:54 48° 74° (ENE) 18:15:15 435.215
KKS-1 23 Aug 18:16:59 18:20:52 29° 293° (WNW) 18:24:43 437.445
LilacSat-2 23 Aug 18:17:21 18:20:57 39° 72° (ENE) 18:24:34 437.200
Cubesat XI-IV 23 Aug 18:17:32 18:22:40 49° 70° (ENE) 18:27:49 437.490
NOAA 18 23 Aug 18:30:37 18:36:05 62° 71° (ENE) 18:41:33 137.9125
CUTE-I 23 Aug 18:30:47 18:36:04 65° 72° (ENE) 18:41:22 437.470
HO-68 23 Aug 18:32:41 18:37:15 18° 52° (NE) 18:41:48 435.675
HORYU 2 23 Aug 18:39:33 18:42:41 19° 267° (W) 18:45:50 437.375
BEESAT 3 23 Aug 18:40:28 18:42:18 13° 37° (NE) 18:44:08 437.485
GOMX 1 23 Aug 18:41:26 18:46:21 73° 75° (ENE) 18:51:39 467.674
BRITE-PL 23 Aug 18:41:38 18:46:12 53° 261° (W) 18:51:12 437.365/2234.400
NOAA 15 23 Aug 18:47:44 18:52:58 71° 258° (WSW) 18:58:15 137.62
CINEMA 3 23 Aug 18:52:31 18:55:20 15° 61° (ENE) 18:58:08 145.822/145.860
CUBESAT XI-V 23 Aug 18:54:38 18:59:19 71° 286° (WNW) 19:04:00 437.345
STARS 23 Aug 19:06:33 19:09:38 19° 296° (WNW) 19:12:42 437.465
DOVE 4 23 Aug 19:11:51 19:16:53 68° 74° (ENE) 19:22:08 437.250
Cosmos 2504 23 Aug 19:15:48 19:22:54 49° 75° (ENE) 19:29:46 435.465 / 435.565
CANX-2 23 Aug 19:20:33 19:23:31 19° 66° (ENE) 19:26:30 2200.000
CUTE 1.7 + AOD 2 23 Aug 19:27:33 19:30:35 20° 66° (ENE) 19:33:37 437.475
Cosmos 2491 23 Aug 19:34:31 19:43:14 86° 96° (E) 19:52:03 435.465 / 435.565
CUBEBUG 2 23 Aug 19:42:46 19:44:57 13° 61° (ENE) 19:47:06 437.445
BEESAT 2 23 Aug 19:49:12 19:52:38 26° 46° (NE) 19:56:02 435.950
UWE-3 23 Aug 19:51:47 19:52:39 10° 60° (ENE) 19:53:31 435.000/436.395/437.385
LilacSat-2 23 Aug 19:53:05 19:55:25 15° 268° (W) 19:57:47 437.200
AAUSAT CUBESAT 2 23 Aug 19:54:13 19:56:33 15° 63° (ENE) 19:58:52 437.432
YUBILEINY 23 Aug 19:55:36 20:03:30 39° 274° (W) 20:11:20 435.215
COMPASS 1 23 Aug 19:56:47 19:59:46 20° 66° (ENE) 20:02:46 437.405
Cubesat XI-IV 23 Aug 19:58:52 20:03:00 22° 267° (W) 20:07:09 437.490
STRAND 1 23 Aug 19:59:00 20:03:27 30° 96° (E) 20:07:53 437.568
CUTE-I 23 Aug 20:13:12 20:16:34 17° 269° (W) 20:19:57 437.470
NOAA 18 23 Aug 20:13:18 20:17:08 19° 268° (W) 20:21:01 137.9125
ZACube-1 23 Aug 20:16:06 20:17:46 12° 61° (ENE) 20:19:27 437.345
BEESAT 3 23 Aug 20:16:36 20:20:35 86° 52° (NE) 20:24:33 437.485
HO-68 23 Aug 20:16:43 20:23:55 83° 72° (ENE) 20:31:10 435.675
GOMX 1 23 Aug 20:22:29 20:25:05 14° 273° (W) 20:27:47 467.674
CINEMA 3 23 Aug 20:26:49 20:31:50 76° 259° (W) 20:36:51 145.822/145.860
AIST 1 23 Aug 20:33:02 20:36:03 18° 70° (ENE) 20:39:03
SEEDS 23 Aug 20:42:51 20:47:01 90° 201° (SSW) 20:51:12 437.485
DOVE 4 23 Aug 20:52:04 20:55:05 16° 272° (W) 20:58:11 437.250
CANX-2 23 Aug 20:55:09 20:59:06 40° 262° (W) 21:03:05 2200.000
PCSat 23 Aug 20:59:46 21:03:34 19° 40° (NE) 21:07:20 145.827
CUTE 1.7 + AOD 2 23 Aug 21:02:14 21:06:10 38° 263° (W) 21:10:07 437.475
Cosmos 2504 23 Aug 21:09:45 21:15:54 30° 275° (W) 21:21:55 435.465 / 435.565
CUBEBUG 2 23 Aug 21:16:14 21:20:58 77° 258° (WSW) 21:25:38 437.445
AIST 2 23 Aug 21:21:58 21:24:24 15° 38° (NE) 21:26:50 435.215
UWE-3 23 Aug 21:23:46 21:28:24 87° 73° (ENE) 21:32:58 435.000/436.395/437.385
BEESAT 2 23 Aug 21:26:52 21:30:29 33° 244° (WSW) 21:34:05 435.950
AAUSAT CUBESAT 2 23 Aug 21:27:37 21:31:36 51° 260° (W) 21:35:37 437.432
Oscar 11 23 Aug 21:29:12 21:33:27 65° 74° (ENE) 21:37:44 145.826/435.025
FUNcube-1 23 Aug 21:30:10 21:34:36 62° 74° (ENE) 21:38:57 145.935
COMPASS 1 23 Aug 21:31:16 21:35:05 36° 262° (W) 21:38:56 437.405
Cosmos 2491 23 Aug 21:34:54 21:41:16 22° 298° (WNW) 21:47:43 435.465 / 435.565
STRAND 1 23 Aug 21:38:03 21:42:39 35° 293° (WNW) 21:47:13 437.568
HUMSAT D 23 Aug 21:41:21 21:44:16 19° 66° (ENE) 21:47:11 437.325/437.525
ZACube-1 23 Aug 21:48:57 21:53:28 78° 258° (WSW) 21:57:55 437.345
HO-68 23 Aug 22:07:38 22:12:26 19° 270° (W) 22:17:15 435.675
AIST 1 23 Aug 22:09:42 22:13:53 43° 268° (W) 22:18:02
DELFI C3 23 Aug 22:10:07 22:14:01 77° 76° (ENE) 22:17:58 145.870
GONETS M04 23 Aug 22:14:04 22:19:09 16° 57° (ENE) 22:24:11
PRISM 23 Aug 22:15:36 22:19:48 88° 109° (ESE) 22:23:59 437.425
AUBIESAT-1 23 Aug 22:31:29 22:35:38 34° 63° (ENE) 22:39:49 437.475
M-CUBED/EXP-1 PRIME 23 Aug 22:32:50 22:37:13 42° 65° (ENE) 22:41:40 437.505
Cosmos 2499 23 Aug 22:36:25 22:39:00 12° 57° (ENE) 22:41:33 435.465 / 435.565
PCSat 23 Aug 22:42:14 22:47:41 87° 246° (WSW) 22:53:06 145.827
ESTCUBE 1 23 Aug 22:44:30 22:47:26 17° 63° (ENE) 22:50:22 437.505/2401.250
TIGRISAT 23 Aug 22:51:39 22:54:55 21° 93° (E) 22:58:07 435.000
AIST 2 23 Aug 22:59:16 23:03:27 85° 238° (WSW) 23:07:39 435.215
Oscar 11 23 Aug 23:08:25 23:10:01 12° 271° (W) 23:11:37 145.826/435.025
FUNcube-1 23 Aug 23:09:04 23:11:12 13° 270° (W) 23:13:20 145.935
AISAT 23 Aug 23:11:22 23:14:30 19° 64° (ENE) 23:17:40 437.250
HUMSAT D 23 Aug 23:15:41 23:19:38 40° 262° (W) 23:23:33 437.325/437.525
UNISAT 6 23 Aug 23:18:08 23:22:16 42° 98° (E) 23:26:18 437.425
SPROUT 23 Aug 23:18:33 23:19:12 10° 60° (ENE) 23:19:52 437.525
UKube-1 23 Aug 23:44:40 23:47:57 21° 65° (ENE) 23:51:15 .
QB50P2 23 Aug 23:50:55 23:53:22 15° 91° (E) 23:55:49 145.880/145.840
POLYITAN 1 23 Aug 23:53:27 23:55:56 15° 91° (E) 23:58:23 437.675
DUCHIFAT 1 23 Aug 23:55:07 23:57:14 14° 90° (E) 23:59:21 145.980
ANTELSAT 23 Aug 23:55:11 23:59:31 76° 285° (WNW) 00:03:46 437.575/2403.000
VELOX 1 23 Aug 23:57:48 00:02:06 52° 72° (ENE) 00:06:26 145.980
SO-50 24 Aug 00:01:09 00:02:21 11° 107° (ESE) 00:03:34 436.795
O/OREOS (USA 219) 24 Aug 00:04:15 00:07:42 20° 54° (NE) 00:11:08 437.305
NANOSAT C BR1 24 Aug 00:05:54 00:08:58 19° 93° (E) 00:12:00 145.865
AUBIESAT-1 24 Aug 00:06:06 00:10:03 28° 260° (W) 00:14:04 437.475
M-CUBED/EXP-1 PRIME 24 Aug 00:08:09 00:11:50 23° 262° (W) 00:15:35 437.505
GONETS M04 24 Aug 00:08:53 00:17:46 73° 80° (E) 00:26:36
CUBEBUG 1 24 Aug 00:11:36 00:15:59 87° 75° (ENE) 00:20:26 437.445
50 SAT 24 Aug 00:16:11 00:19:46 85° 76° (ENE) 00:23:22 437.505
ESTCUBE 1 24 Aug 00:19:30 00:23:50 51° 260° (W) 00:28:14 437.505/2401.250
Cosmos 2499 24 Aug 00:26:31 00:33:38 71° 80° (E) 00:40:41 435.465 / 435.565
TIGRISAT 24 Aug 00:27:46 00:31:44 36° 290° (WNW) 00:35:37 435.000
PCSat 24 Aug 00:28:17 00:30:13 12° 258° (WSW) 00:32:10 145.827
DX 1 24 Aug 00:30:16 00:34:37 81° 76° (ENE) 00:39:01 434.975-435.025
AISAT 24 Aug 00:46:23 00:50:38 45° 261° (W) 00:54:57 437.250
QB50P1 24 Aug 00:46:26 00:50:37 57° 100° (E) 00:54:46 145.935-145.965
SPROUT 24 Aug 00:50:08 00:54:28 86° 258° (WSW) 00:58:48 437.525
UNISAT 6 24 Aug 00:55:39 00:58:40 19° 296° (WNW) 01:01:39 437.425
POPSAT HIP 1 24 Aug 00:55:59 01:00:14 73° 102° (ESE) 01:04:25 437.405
BUGSAT 1 24 Aug 01:07:32 01:11:24 36° 97° (E) 01:15:12 437.445
UKube-1 24 Aug 01:19:45 01:23:45 37° 262° (W) 01:27:49 .
JAS-2 24 Aug 01:21:40 01:28:11 61° 101° (ESE) 01:35:27 435.910
CUSAT 1 24 Aug 01:23:05 01:25:30 26° 289° (WNW) 01:28:18 437.405
QB50P2 24 Aug 01:25:22 01:29:28 49° 288° (WNW) 01:33:32 145.880/145.840
TISAT 1 24 Aug 01:25:31 01:29:39 51° 73° (ENE) 01:33:48 437.305
POLYITAN 1 24 Aug 01:27:55 01:32:01 48° 288° (WNW) 01:36:03 437.675
DUCHIFAT 1 24 Aug 01:29:09 01:33:16 53° 287° (WNW) 01:37:21 145.980
ITUPSAT 1 24 Aug 01:30:51 01:33:18 14° 60° (ENE) 01:35:43 437.325
VELOX 1 24 Aug 01:36:12 01:38:53 16° 269° (W) 01:41:34 145.980
SO-50 24 Aug 01:37:13 01:42:06 86° 123° (ESE) 01:46:56 436.795
DANDE 24 Aug 01:38:01 01:40:37 78° 280° (W) 01:43:15 436.750
NANOSAT C BR1 24 Aug 01:40:55 01:44:50 37° 290° (WNW) 01:48:42 145.865
O/OREOS (USA 219) 24 Aug 01:42:57 01:47:22 48° 252° (WSW) 01:51:47 437.305
RS-15 24 Aug 01:46:40 01:56:52 39° 106° (ESE) 02:07:30 29.354- 29.394
Oscar 19 24 Aug 01:53:57 01:58:02 23° 93° (E) 02:02:06 437.125/150
SWISSCUBE 24 Aug 02:04:17 02:08:27 31° 67° (ENE) 02:12:39 437.505
GONETS M04 24 Aug 02:06:56 02:13:42 25° 280° (W) 02:20:28
Cosmos 2499 24 Aug 02:21:08 02:25:55 20° 279° (W) 02:30:42 435.465 / 435.565
BEESAT 24 Aug 02:21:34 02:26:02 41° 70° (ENE) 02:30:30 436.000
QB50P1 24 Aug 02:23:40 02:25:55 14° 298° (WNW) 02:28:11 145.935-145.965
Gurwin Techsat 1B 24 Aug 02:29:18 02:33:28 23° 93° (E) 02:37:36 435.225
POPSAT HIP 1 24 Aug 02:33:55 02:35:25 12° 299° (WNW) 02:36:55 437.405
BUGSAT 1 24 Aug 02:43:27 02:46:32 20° 295° (WNW) 02:49:35 437.445
ITAMSAT 1 24 Aug 03:00:03 03:02:14 13° 89° (E) 03:04:24 435.822/435.867
TISAT 1 24 Aug 03:03:14 03:05:36 15° 269° (W) 03:07:59 437.305
ITUPSAT 1 24 Aug 03:05:45 03:10:31 75° 258° (WSW) 03:15:18 437.325
JAS-2 24 Aug 03:07:34 03:12:52 28° 297° (WNW) 03:18:41 435.910
MOZHAYETS 4 24 Aug 03:14:31 03:17:55 21° 65° (ENE) 03:21:19
AO-7 24 Aug 03:19:06 03:22:42 13° 86° (E) 03:26:16 29.400- 29.500
SO-50 24 Aug 03:19:51 03:23:11 18° 322° (NW) 03:26:31 436.795
Oscar 19 24 Aug 03:32:36 03:37:34 46° 290° (WNW) 03:42:31 437.125/150
KKS-1 24 Aug 03:39:25 03:43:19 30° 68° (ENE) 03:47:14 437.445
PHONESAT 2.4 24 Aug 03:39:43 03:40:36 11° 151° (SSE) 03:41:28 2401.200-2431.200
SWISSCUBE 24 Aug 03:42:06 03:46:13 29° 264° (W) 03:50:22 437.505
RS-15 24 Aug 03:57:01 04:08:35 68° 310° (NW) 04:20:49 29.354- 29.394
BEESAT 24 Aug 04:00:18 04:03:59 22° 266° (W) 04:07:41 436.000
Gurwin Techsat 1B 24 Aug 04:08:33 04:13:39 48° 290° (WNW) 04:18:43 435.225
CUBESAT XI-V 24 Aug 04:23:53 04:26:26 15° 62° (ENE) 04:29:00 437.345
STARS 24 Aug 04:26:41 04:30:55 45° 71° (ENE) 04:35:10 437.465
ITAMSAT 1 24 Aug 04:37:07 04:42:19 81° 287° (WNW) 04:47:29 435.822/435.867
MOZHAYETS 4 24 Aug 04:50:28 04:54:48 42° 262° (W) 04:59:09
AO-7 24 Aug 05:08:34 05:16:54 71° 106° (ESE) 05:25:09 29.400- 29.500
PHONESAT 2.4 24 Aug 05:13:41 05:16:26 33° 166° (SSE) 05:19:12 2401.200-2431.200
KKS-1 24 Aug 05:16:00 05:19:50 28° 264° (W) 05:23:42 437.445
AO-85 24 Aug 05:38:44 05:40:28 12° 107° (ESE) 05:42:10 145.980
Cosmos 2491 24 Aug 05:43:43 05:52:07 46° 73° (ENE) 06:00:30 435.465 / 435.565
CUBESAT XI-V 24 Aug 05:58:43 06:03:16 65° 259° (WSW) 06:07:53 437.345
STARS 24 Aug 06:04:29 06:07:30 18° 268° (W) 06:10:31 437.465
RS-15 24 Aug 06:13:47 06:23:57 31° 340° (NNW) 06:34:26 29.354- 29.394
ITAMSAT 1 24 Aug 06:19:05 06:20:57 12° 304° (WNW) 06:22:48 435.822/435.867
HORYU 2 24 Aug 06:27:40 06:32:07 76° 104° (ESE) 06:36:30 437.375
Cubesat XI-IV 24 Aug 06:34:41 06:38:14 18° 91° (E) 06:41:44 437.490
GOMX 1 24 Aug 06:42:54 06:47:15 24° 91° (E) 06:51:27 467.674
BRITE-PL 24 Aug 06:44:37 06:50:10 51° 98° (E) 06:55:41 437.365/2234.400
CUTE-I 24 Aug 06:47:24 06:51:37 23° 93° (E) 06:55:49 437.470
PHONESAT 2.4 24 Aug 06:49:39 06:52:34 49° 182° (S) 06:55:29 2401.200-2431.200
NOAA 18 24 Aug 06:52:19 06:56:38 23° 94° (E) 07:00:54 137.9125
YUBILEINY 24 Aug 07:00:18 07:08:46 53° 90° (E) 07:17:15 435.215
NOAA 15 24 Aug 07:01:52 07:06:52 40° 98° (E) 07:11:50 137.62
AO-7 24 Aug 07:02:10 07:09:01 30° 306° (NW) 07:15:50 29.400- 29.500
DOVE 4 24 Aug 07:11:05 07:14:41 19° 90° (E) 07:18:08 437.250
AO-85 24 Aug 07:14:56 07:20:16 81° 123° (ESE) 07:25:18 145.980
STRAND 1 24 Aug 07:15:42 07:20:35 48° 70° (ENE) 07:25:29 437.568
LilacSat-2 24 Aug 07:23:37 07:27:19 51° 100° (E) 07:30:59 437.200
Cosmos 2491 24 Aug 07:40:48 07:48:52 42° 273° (W) 07:56:56 435.465 / 435.565
HO-68 24 Aug 07:45:50 07:49:16 14° 87° (E) 07:52:41 435.675
Cosmos 2504 24 Aug 07:54:25 08:02:17 43° 88° (E) 08:09:42 435.465 / 435.565
HORYU 2 24 Aug 08:06:18 08:08:02 12° 300° (WNW) 08:09:46 437.375
Cubesat XI-IV 24 Aug 08:13:28 08:18:43 62° 288° (WNW) 08:23:57 437.490
GOMX 1 24 Aug 08:20:16 08:25:33 49° 289° (WNW) 08:30:39 467.674
CINEMA 3 24 Aug 08:21:34 08:25:19 24° 93° (E) 08:28:55 145.822/145.860
BRITE-PL 24 Aug 08:23:42 08:28:17 26° 295° (WNW) 08:32:52 437.365/2234.400
PHONESAT 2.4 24 Aug 08:26:05 08:28:39 25° 199° (SSW) 08:31:12 2401.200-2431.200
CUTE-I 24 Aug 08:26:49 08:31:53 47° 291° (WNW) 08:36:56 437.470
SEEDS 24 Aug 08:27:06 08:29:18 14° 91° (E) 08:31:30 437.485
SO-50 24 Aug 08:28:23 08:31:31 17° 37° (NE) 08:34:35 436.795
RS-15 24 Aug 08:31:27 08:41:40 29° 16° (NNE) 08:51:56 29.354- 29.394
NOAA 18 24 Aug 08:32:16 08:37:32 50° 291° (WNW) 08:42:47 137.9125
CANX-2 24 Aug 08:38:58 08:42:44 30° 96° (E) 08:46:29 2200.000
NOAA 15 24 Aug 08:41:59 08:46:28 28° 295° (WNW) 08:50:57 137.62
CUTE 1.7 + AOD 2 24 Aug 08:45:53 08:49:41 31° 96° (E) 08:53:28 437.475
DOVE 4 24 Aug 08:47:40 08:52:44 54° 288° (WNW) 08:57:31 437.250
STRAND 1 24 Aug 08:56:08 09:00:00 22° 267° (W) 09:03:53 437.568
AO-85 24 Aug 08:57:30 09:01:17 20° 320° (NW) 09:04:55 145.980
YUBILEINY 24 Aug 08:57:54 09:05:51 36° 290° (WNW) 09:13:53 435.215
LilacSat-2 24 Aug 08:59:31 09:01:11 13° 296° (WNW) 09:02:51 437.200
PRISM 24 Aug 09:05:40 09:09:43 72° 75° (ENE) 09:13:50 437.425
CUBEBUG 2 24 Aug 09:07:11 09:10:18 19° 92° (E) 09:13:22 437.445
AAUSAT CUBESAT 2 24 Aug 09:09:10 09:12:26 22° 94° (E) 09:15:41 437.432
COMPASS 1 24 Aug 09:12:48 09:16:31 30° 96° (E) 09:20:12 437.405
UWE-3 24 Aug 09:13:55 09:16:23 15° 91° (E) 09:18:50 435.000/436.395/437.385
Oscar 11 24 Aug 09:17:51 09:18:56 11° 89° (E) 09:20:01 145.826/435.025
ANTELSAT 24 Aug 09:20:54 09:22:52 13° 61° (ENE) 09:24:48 437.575/2403.000
HO-68 24 Aug 09:30:51 09:38:04 80° 106° (ESE) 09:45:13 435.675
ZACube-1 24 Aug 09:37:23 09:40:12 17° 92° (E) 09:42:59 437.345
Cosmos 2504 24 Aug 09:47:39 09:55:38 43° 286° (WNW) 10:03:10 435.465 / 435.565
TIGRISAT 24 Aug 09:51:04 09:54:43 23° 66° (ENE) 09:58:18 435.000
CINEMA 3 24 Aug 09:58:20 10:02:32 34° 291° (WNW) 10:06:32 145.822/145.860
SEEDS 24 Aug 10:01:13 10:05:18 52° 287° (WNW) 10:09:24 437.485
SO-50 24 Aug 10:07:58 10:12:36 82° 238° (WSW) 10:17:05 436.795
CUSAT 1 24 Aug 10:09:48 10:14:22 22° 70° (ENE) 10:19:39 437.405
BEESAT 3 24 Aug 10:11:23 10:11:56 10° 108° (ESE) 10:12:30 437.485
CANX-2 24 Aug 10:15:02 10:18:28 24° 292° (WNW) 10:21:53 2200.000
UNISAT 6 24 Aug 10:17:27 10:21:51 44° 71° (ENE) 10:26:11 437.425
ISS 24 Aug 10:20:42 10:23:26 25° 136° (SE) 10:26:11 145.825
CUTE 1.7 + AOD 2 24 Aug 10:22:00 10:25:22 24° 293° (WNW) 10:28:44 437.475
AIST 1 24 Aug 10:39:24 10:43:44 78° 279° (W) 10:48:08
CUBEBUG 2 24 Aug 10:43:07 10:47:05 37° 290° (WNW) 10:50:57 437.445
AAUSAT CUBESAT 2 24 Aug 10:44:15 10:47:57 32° 290° (WNW) 10:51:40 437.432
QB50P2 24 Aug 10:45:03 10:47:21 14° 62° (ENE) 10:49:39 145.880/145.840
RS-15 24 Aug 10:45:18 10:57:32 60° 46° (NE) 11:09:36 29.354- 29.394
POLYITAN 1 24 Aug 10:47:31 10:49:53 15° 62° (ENE) 10:52:14 437.675
COMPASS 1 24 Aug 10:48:35 10:51:56 24° 292° (WNW) 10:55:17 437.405
DUCHIFAT 1 24 Aug 10:48:36 10:50:32 13° 62° (ENE) 10:52:28 145.980
UWE-3 24 Aug 10:49:05 10:53:09 46° 288° (WNW) 10:57:08 435.000/436.395/437.385
Oscar 11 24 Aug 10:51:14 10:55:32 70° 285° (WNW) 10:59:49 145.826/435.025
FUNcube-1 24 Aug 10:53:20 10:57:30 71° 285° (WNW) 11:01:36 145.935
ANTELSAT 24 Aug 10:54:19 10:58:58 78° 259° (WSW) 11:03:32 437.575/2403.000
HUMSAT D 24 Aug 10:58:02 11:01:32 27° 96° (E) 11:05:02 437.325/437.525
NANOSAT C BR1 24 Aug 10:59:20 11:02:13 18° 64° (ENE) 11:05:05 145.865
ZACube-1 24 Aug 11:12:45 11:16:42 40° 289° (WNW) 11:20:33 437.345
GONETS M04 24 Aug 11:19:22 11:24:05 16° 74° (ENE) 11:28:48
BEESAT 2 24 Aug 11:19:26 11:22:54 30° 115° (ESE) 11:26:24 435.950
HO-68 24 Aug 11:19:44 11:25:00 23° 305° (NW) 11:30:16 435.675
DELFI C3 24 Aug 11:21:11 11:25:11 73° 284° (WNW) 11:29:09 145.870
TIGRISAT 24 Aug 11:26:52 11:31:11 38° 262° (W) 11:35:28 435.000
JAS-2 24 Aug 11:37:16 11:41:25 25° 62° (ENE) 11:45:44 435.910
QB50P1 24 Aug 11:39:32 11:43:38 48° 72° (ENE) 11:47:47 145.935-145.965
AUBIESAT-1 24 Aug 11:44:37 11:47:30 18° 96° (E) 11:50:14 437.475
BEESAT 3 24 Aug 11:45:06 11:49:00 73° 305° (NW) 11:52:57 437.485
M-CUBED/EXP-1 PRIME 24 Aug 11:46:26 11:49:53 24° 98° (E) 11:53:07 437.505
POPSAT HIP 1 24 Aug 11:49:02 11:53:15 61° 74° (ENE) 11:57:30 437.405
CUSAT 1 24 Aug 11:50:41 11:56:36 70° 262° (W) 12:03:57 437.405
UNISAT 6 24 Aug 11:55:23 11:58:44 20° 267° (W) 12:02:04 437.425
ISS 24 Aug 11:56:33 11:59:43 46° 334° (NNW) 12:02:53 145.825
BUGSAT 1 24 Aug 11:58:04 12:01:46 30° 68° (ENE) 12:05:30 437.445
CUBEBUG 1 24 Aug 12:00:28 12:03:05 15° 91° (E) 12:05:40 437.445
DANDE 24 Aug 12:10:22 12:15:14 75° 80° (E) 12:21:45 436.750
ESTCUBE 1 24 Aug 12:10:58 12:14:58 30° 96° (E) 12:18:57 437.505/2401.250
QB50P2 24 Aug 12:18:27 12:22:40 59° 259° (W) 12:26:55 145.880/145.840
DX 1 24 Aug 12:19:11 12:21:12 13° 90° (E) 12:23:13 434.975-435.025
POLYITAN 1 24 Aug 12:20:59 12:25:13 58° 259° (W) 12:29:28 437.675
DUCHIFAT 1 24 Aug 12:21:27 12:25:41 66° 258° (WSW) 12:29:57 145.980
NANOSAT C BR1 24 Aug 12:33:31 12:37:36 45° 261° (W) 12:41:43 145.865
HUMSAT D 24 Aug 12:33:44 12:37:04 25° 292° (WNW) 12:40:25 437.325/437.525
AISAT 24 Aug 12:35:31 12:39:30 30° 96° (E) 12:43:25 437.250
SPROUT 24 Aug 12:36:24 12:38:52 15° 91° (E) 12:41:20 437.525
BEESAT 2 24 Aug 12:57:16 13:00:42 28° 313° (NW) 13:04:11 435.950
RS-15 24 Aug 12:58:19 13:09:52 49° 250° (WSW) 13:21:12 29.354- 29.394
AIST 2 24 Aug 12:59:18 13:01:40 15° 110° (ESE) 13:04:04 435.215
Cosmos 2499 24 Aug 13:03:11 13:11:15 58° 92° (E) 13:18:45 435.465 / 435.565
UKube-1 24 Aug 13:05:37 13:09:30 31° 97° (E) 13:13:21 .
GONETS M04 24 Aug 13:10:38 13:19:21 80° 95° (E) 13:28:12
Oscar 19 24 Aug 13:11:34 13:16:16 37° 68° (ENE) 13:21:00 437.125/150
50 SAT 24 Aug 13:16:45 13:20:24 89° 281° (W) 13:24:03 437.505
QB50P1 24 Aug 13:17:05 13:19:41 16° 269° (W) 13:22:17 145.935-145.965
AUBIESAT-1 24 Aug 13:18:13 13:22:10 39° 295° (WNW) 13:25:50 437.475
M-CUBED/EXP-1 PRIME 24 Aug 13:20:36 13:24:26 32° 297° (WNW) 13:28:00 437.505
JAS-2 24 Aug 13:21:23 13:26:17 42° 262° (W) 13:31:24 435.910
VELOX 1 24 Aug 13:22:57 13:27:27 89° 285° (WNW) 13:31:55 145.980
PCSat 24 Aug 13:24:33 13:29:55 72° 118° (ESE) 13:35:21 145.827
BEESAT 3 24 Aug 13:26:05 13:27:24 11° 325° (NW) 13:28:42 437.485
POPSAT HIP 1 24 Aug 13:27:33 13:29:25 13° 270° (W) 13:31:18 437.405
BUGSAT 1 24 Aug 13:33:36 13:37:08 25° 265° (W) 13:40:40 437.445
ISS 24 Aug 13:34:15 13:36:43 19° 353° (N) 13:39:10 145.825
CUBEBUG 1 24 Aug 13:35:20 13:39:41 53° 288° (WNW) 13:43:59 437.445
CUSAT 1 24 Aug 13:36:12 13:38:00 11° 276° (W) 13:39:54 437.405
ESTCUBE 1 24 Aug 13:47:50 13:51:42 28° 293° (WNW) 13:55:34 437.505/2401.250
Gurwin Techsat 1B 24 Aug 13:51:08 13:56:03 40° 68° (ENE) 14:01:01 435.225
DX 1 24 Aug 13:53:27 13:57:48 62° 287° (WNW) 14:02:07 434.975-435.025
DANDE 24 Aug 13:54:54 13:57:50 15° 270° (W) 14:01:08 436.750
AO-85 24 Aug 14:07:08 14:09:35 14° 34° (NE) 14:11:56 145.980
SPROUT 24 Aug 14:10:56 14:15:07 50° 287° (WNW) 14:19:14 437.525
AISAT 24 Aug 14:12:05 14:15:52 27° 293° (WNW) 14:19:37 437.250
ITAMSAT 1 24 Aug 14:18:12 14:22:14 24° 63° (ENE) 14:26:17 435.822/435.867
AO-7 24 Aug 14:18:22 14:24:50 26° 52° (NE) 14:31:17 29.400- 29.500
O/OREOS (USA 219) 24 Aug 14:18:38 14:21:28 17° 100° (E) 14:24:20 437.305
AIST 2 24 Aug 14:35:40 14:39:42 55° 307° (NW) 14:43:47 435.215
UKube-1 24 Aug 14:41:51 14:45:25 25° 294° (WNW) 14:48:57 .
TISAT 1 24 Aug 14:43:45 14:48:00 81° 105° (ESE) 14:52:11 437.305
Oscar 19 24 Aug 14:51:12 14:55:38 29° 265° (W) 15:00:06 437.125/150
Cosmos 2499 24 Aug 14:57:43 15:04:43 30° 290° (WNW) 15:11:20 435.465 / 435.565
VELOX 1 24 Aug 15:02:26 15:03:11 10° 301° (WNW) 15:03:57 145.980
ITUPSAT 1 24 Aug 15:05:37 15:09:35 26° 95° (E) 15:13:31 437.325
PCSat 24 Aug 15:09:44 15:13:53 22° 317° (NW) 15:18:02 145.827
GONETS M04 24 Aug 15:10:30 15:17:14 24° 297° (WNW) 15:24:02
ISS 24 Aug 15:11:15 15:13:56 23° 13° (NNE) 15:16:37 145.825
Gurwin Techsat 1B 24 Aug 15:31:38 15:36:07 27° 265° (W) 15:40:37 435.225
SWISSCUBE 24 Aug 15:40:15 15:45:00 64° 102° (ESE) 15:49:44 437.505
AO-85 24 Aug 15:46:26 15:50:46 89° 56° (NE) 15:54:46 145.980
O/OREOS (USA 219) 24 Aug 15:56:05 16:00:26 50° 297° (WNW) 16:04:52 437.305
ITAMSAT 1 24 Aug 15:56:23 16:01:23 48° 260° (W) 16:06:25 435.822/435.867
BEESAT 24 Aug 15:57:49 16:02:37 86° 103° (ESE) 16:07:23 436.000
AO-7 24 Aug 16:08:19 16:16:43 82° 252° (WSW) 16:25:08 29.400- 29.500
AIST 2 24 Aug 16:18:49 16:19:07 10° 328° (NNW) 16:19:25 435.215
TISAT 1 24 Aug 16:22:07 16:22:59 11° 300° (WNW) 16:23:50 437.305
